Location: Audinghen
(50.8518°N, 1.6129°E)
Time: 15:45:46
(UTC+00:00)

Cosmos 1908 - Pass Details

Date: 07 August 2020
Orbit: 510 x 531 km, 82.5° (Epoch: 18 September)

Event Time Altitude Azimuth Distance (km) Brightness Sun altitude
Rises 03:39:38 0° 182° (S) 2,659 6.4 -7.4°
Reaches altitude 10° 03:41:46 10° 180° (S) 1,776 5.6 -7.2°
Maximum altitude 03:45:38 68° 98° (E) 579 3.6 -6.7°
Drops below altitude 10° 03:49:33 10° 15° (NNE) 1,795 6.8 -6.2°
Sets 03:51:43 0° 13° (NNE) 2,690 7.7 -5.9°
